Simultaneous Nadir Overpasses (SNOs) Predictions

Prediction of SNOs between GOES-16 and METOP-B Satellite Orbit:

Table of predicted SNOs for the next 14.0 days since TLE Epoch: 11/28/2025
Index Date Time (GOES-16) GOES-16 Lat,Lon METOP-B Lat,Lon Distance(km) Time Diff (sec)
1 11/29/2025 15:58:31 0.04,-104.70 -0.08,-104.26 50.71 80
2 12/01/2025 04:17:39 -0.03,-104.65 -0.96,-108.89 482.47 80
3 12/02/2025 03:54:25 -0.03,-104.65 0.12,-103.91 83.85 80
4 12/03/2025 16:13:25 0.03,-104.70 0.90,-108.51 434.87 80
5 12/04/2025 15:55:32 0.03,-104.70 -0.24,-103.55 131.71 80
6 12/06/2025 04:14:40 -0.04,-104.64 -0.80,-108.18 401.74 80
7 12/07/2025 03:51:26 -0.05,-104.64 0.29,-103.20 164.50 80
8 12/08/2025 16:10:25 0.05,-104.69 0.77,-107.79 354.31 80
9 12/09/2025 15:52:31 0.06,-104.69 -0.38,-102.83 212.70 80
10 12/11/2025 04:11:40 -0.06,-104.65 -0.66,-107.46 319.58 80
11 12/12/2025 03:48:25 -0.07,-104.65 0.43,-102.48 247.23 80
